Location: *
(31.2983°S, 151.4094°E)
Time: 14:08:48
(UTC+00:00)

N. Korean satellite - Visible Passes

Search period start: 23 September 2020 00:00
Search period end: 03 October 2020 00:00
Orbit: 455 x 503 km, 97.2° (Epoch: 22 September)

Date Brightness Start Highest point End Pass type
(mag) Time Alt. Az. Time Alt. Az. Time Alt. Az.
23 Sep 6.8 19:07:18 10° N 19:10:39 43° W 19:14:00 10° SSW visible
24 Sep 6.8 18:41:11 10° NNE 18:44:39 70° ESE 18:48:07 10° S visible
25 Sep 8.8 18:15:44 10° NE 18:18:43 27° ESE 18:21:44 10° SSE visible
26 Sep 10.1 17:51:23 10° E 17:52:53 12° ESE 17:54:24 10° SE visible
27 Sep 10.3 08:28:48 10° SW 08:29:50 11° WSW 08:30:53 10° W visible
27 Sep 6.4 18:56:26 10° N 18:59:53 64° W 19:03:21 10° SSW visible
28 Sep 7.6 18:30:34 10° NNE 18:33:54 47° ESE 18:37:15 10° S visible
29 Sep 9.4 18:05:26 10° ENE 18:08:01 20° ESE 18:10:36 10° SSE visible
01 Oct 6.5 18:45:39 10° NNE 18:49:06 85° ESE 18:52:35 10° S visible
02 Oct 8.5 18:20:03 10° NE 18:23:08 32° ESE 18:26:16 10° S visible
